Regional Weather Roundup
Issued by NWS Cleveland, OH

Home | Current Version | Previous Version | Graphics & Text | Print | Product List | Glossary Off
Versions: 1 2 3 4 5 6 7 8 9 10 11 12 13 14 15 16 17 18 19 20 21 22 23 24 25 26 27 28 29 30 31 32 33 34 35 36 37 38 39 40 41 42 43 44 45 46 47 48 49 50

000
ASUS41 KCLE 280712
RWRCLE
OHIO REGIONAL WEATHER ROUNDUP
NATIONAL WEATHER SERVICE WILMINGTON, OH
300 AM EDT WED JUN 28 2017

NOTE: "FAIR" INDICATES FEW OR NO CLOUDS BELOW 12,000 FEET WITH NO
SIGNIFICANT WEATHER AND/OR OBSTRUCTIONS TO VISIBILITY.

OHZ001>008-015>018-024>027-034-035-043-044-280800-
   NORTHWEST OHIO

CITY           SKY/WX    TMP DP  RH WIND       PRES   REMARKS
DEFIANCE       FAIR      51  48  89 CALM      30.10S
FINDLAY        FAIR      57  47  69 SW3       30.10S
TOLEDO EXPRESS FAIR      50  50 100 CALM      30.09S
TOLEDO EXEC    FAIR      57  51  80 SW3       30.10S
LIMA           FAIR      57  48  72 S5        30.12S
$$

OHZ009>014-019>023-028>033-038-089-280800-
   NORTHEAST OHIO

CITY           SKY/WX    TMP DP  RH WIND       PRES   REMARKS
CLE-HOPKINS    FAIR      60  46  59 SW7       30.11S
CLE-LAKEFRONT  FAIR      65  44  46 SW16G24   30.07F
CUY CO. ARPT   NOT AVBL
LORAIN-ELYRIA  FAIR      54  44  69 SW6       30.10S
ASHTABULA      CLOUDY    56  47  71 SW8       30.10S
AKRON-CANTON   FAIR      55  44  66 SW6       30.12S
WOOSTER        FAIR      52  47  83 CALM      30.12F
MANSFIELD      FAIR      55  44  66 SW5       30.12F
YOUNGSTOWN     FAIR      52  44  74 SW5       30.11S
$$

OHZ042-051>053-060>062-070>072-077>081-280800-
  SOUTHWEST OHIO

CITY           SKY/WX    TMP DP  RH WIND       PRES   REMARKS
CINC-COVINGTON FAIR      55  54  96 CALM      30.13F
CINC-LUNKEN    FAIR      53  53 100 CALM      30.15S
HAMILTON       FAIR      51  50  96 CALM      30.14S
DAYTON         FAIR      59  45  59 S5        30.14S
WRIGHT-PAT AFB FAIR      55  52  90 CALM      30.13S
DAYTON GENERAL FAIR      57  48  72 CALM      30.13S
WILMINGTON     FAIR      53  53 100 CALM      30.14F
$$

OHZ036-037-039>041-045>050-054>059-063>069-073>076-082>088-280800-
  CENTRAL AND SOUTHEAST OHIO

CITY           SKY/WX    TMP DP  RH WIND       PRES   REMARKS
COLUMBUS       FAIR      53  52  96 CALM      30.13S
OSU AIRPORT    FAIR      54  49  83 CALM      30.13S
BOLTON FIELD   FAIR      51  49  93 SW3       30.14S
RICKENBACK AFB FAIR      52  50  91 S3        30.14S
NEWARK         FAIR      50  47  89 CALM      30.13F
MARION         FAIR      55  46  71 SW5       30.13S
LANCASTER      FAIR      49  48  97 CALM      30.14S
ZANESVILLE     FAIR      52  49  89 CALM      30.14S
NEW PHILLY     FAIR      51  49  92 CALM      30.14S
$$



USA.gov is the U.S. government's official web portal to all federal, state and local government web resources and services.